Location: Unspecified
(41.5000°N, 0.0000°E)
Time: 13:51:45
(UTC+00:00)

A-11 Canister half - Pass Details

Date: 27 June 2019
Orbit: 1526 x 1682 km, 47.3° (Epoch: 24 August)

Event Time Altitude Azimuth Distance (km) Brightness Sun altitude
Exits shadow 01:04:23 22° 150° (SSE) 2,940 10.1 -23.6°
Maximum altitude 01:06:50 24° 129° (SE) 2,795 10.1 -23.5°
Drops below altitude 10° 01:13:55 10° 79° (E) 3,734 11.4 -23.1°
Sets 01:17:39 0° 67° (ENE) 4,703 12.2 -22.9°
